Regional Weather Roundup
Issued by NWS

Home | Current Version | Previous Version | Graphics & Text | Print | Product List | Glossary On
Versions: 1 2 3 4 5 6 7 8 9 10 11 12 13 14 15 16 17 18 19 20 21 22 23 24 25 26 27 28 29 30 31 32 33 34 35 36 37 38 39 40 41 42 43 44 45 46 47 48 49 50
933
ASUS45 KBOU 010207
RWRCO

WEATHER ROUNDUP FOR COLORADO
NATIONAL WEATHER SERVICE DENVER/BOULDER CO
700 PM MST TUE FEB 28 2017

NOTE: "FAIR" INDICATES FEW OR NO CLOUDS BELOW 12000 FEET WITH NO
SIGNIFICANT WEATHER AND/OR OBSTRUCTIONS TO VISIBILITY.

COZ001>005-013-030-031-010300-
...NORTHWEST COLORADO...

CITY           SKY/WX    TMP DP  RH WIND       PRES   REMARKS
CRAIG          FAIR      14   8  77 W5        30.00R WCI   6
HAYDEN         FAIR      16   9  73 W7        29.98R WCI   6
MEEKER         CLOUDY    23  16  74 S3        30.00R
MOUNT WERNER   NOT AVBL
STEAMBOAT SPGS MOCLDY    16   7  67 W8        29.96R WCI   5
WALDEN         NOT AVBL
$$

COZ006>008-011-010300-
...WEST CENTRAL VALLEYS...

CITY           SKY/WX    TMP DP  RH WIND       PRES   REMARKS
GRAND JUNCTION FAIR      32  20  61 NW7       30.02R WCI  26
MONTROSE       MOCLDY    29  21  72 NW13      30.03R WCI  19
EAGLE          PTCLDY    23   7  50 W5        29.98R WCI  17
RIFLE          MOCLDY    31  10  41 NW10      30.01R WCI  22
DELTA          MOCLDY    35  18  51 W6        30.02R WCI  30
NUCLA          FAIR      32  10  40 NW8       30.04R WCI  25
$$

COZ017>023-064>068-010300-
...SOUTHWEST COLORADO...

CITY           SKY/WX    TMP DP  RH WIND       PRES   REMARKS
DURANGO        FAIR      29  21  72 W16       29.93R WCI  17
CORTEZ         CLOUDY    30  27  88 SE5       30.00R WCI  25
PAGOSA SPRINGS CLOUDY    28  20  69 SW9G17    29.92R WCI  20
TELLURIDE      LGT SNOW  21  12  70 W13G18    29.97R WCI   8
WOLF CREEK PAS CLOUDY    10  10 100 S26G35    29.85R WCI -11
$$

COZ009-010-012-014-032>034-037-058>063-010300-
...CENTRAL COLORADO...

CITY           SKY/WX    TMP DP  RH WIND       PRES   REMARKS
ASPEN          LGT SNOW  18  15  88 N6        29.93R FOG     WCI  10
BUENA VISTA    MOCLDY    22  10  59 NW9       29.87R WCI  12
COPPER MTN     CLOUDY     5  -2  72 MISG      29.76R
BERTHOUD PASS  SNOW      -6 -15  65 NW36G51   29.66R VSB 1/2 WCI -36
COTTONWOOD PAS CLOUDY    19   3  49 NW7       29.81R WCI  10
GUNNISON       FAIR      23   7  50 W14       29.91R WCI  11
KREMMLING      CLOUDY    21   7  53 W5        29.95R WCI  15
LEADVILLE      LGT SNOW   9   3  77 NW8G24    29.83R WCI  -3
MONARCH PASS     N/A      5   1  85 MISG      29.85R
SALIDA         FAIR      30   7  38 W10       29.93R WCI  21
SUNLIGHT       NOT AVBL
WILKERSON PASS CLOUDY     9   1  72 N10G16    29.80R WCI  -6
$$

COZ069>075-010300-
...SAN LUIS VALLEY/SANGRE DE CRISTO MOUNTAINS...

CITY           SKY/WX    TMP DP  RH WIND       PRES   REMARKS
ALAMOSA        MOCLDY    27  23  85 N8        29.86R WCI  19
LA VETA PASS   CLOUDY    21  18  86 S28G43    29.77R FOG     WCI   3
SAGUACHE       CLOUDY    27  14  59 NW18G25   29.88R WCI  13
$$

COZ035-036-038>040-010300-
...NORTHERN COLORADO FRONT RANGE...

CITY           SKY/WX    TMP DP  RH WIND       PRES   REMARKS
DENVER INTL AP FAIR      24  23  96 SW3       29.88R
DMNS CITY PARK   N/A     31  -2  24 W17G30    29.91R WCI  19
AURORA         MOCLDY    22  22  99 CALM      29.89R
FRONT RANGE AP MOCLDY    25  25 100 SE5       29.89R FOG     WCI  19
ERIE MUNI ARPT FAIR      27  26  98 CALM      29.90R
BOULDER MUN AP FAIR      32   0  25 NW12G23   29.90R WCI  23
CENTENNIAL     MOCLDY    27  17  66 N15G26    29.87R WCI  15
BROOMFIELD     PTCLDY    30   3  31 NW12      29.89  WCI  21
FORT COLLINS   FAIR      27  11  51 NW14      29.91R WCI  16
LONGMONT       NOT AVBL
$$

COZ041-046-047-076>085-087-088-010300-
...PIKES PEAK/PALMER DIVIDE AND SOUTHERN FOOTHILLS...

CITY           SKY/WX    TMP DP  RH WIND       PRES   REMARKS
COLO. SPRINGS  MOCLDY    31  24  75 NE9       29.83R WCI  23
A. F. ACADEMY  MIX PCPN  27  21  80 N21       29.83R WCI  13
SCHRIEVER AFB  FAIR      27  23  85 N13       29.84R WCI  16
ELLICOTT       FAIR     N/A N/A N/A NE12      29.82R
FALCON         LGT SNOW  26  24  92 N15G21    29.84R WCI  13
FORT CARSON    FAIR      28  24  83 NW9       29.83R WCI  20
LIMON          LGT SNOW  24  22  91 N8        29.87R FOG     WCI  15
MONUMENT HILL  LGT SNOW  23  21  93 N9        29.85R WCI  13
TRINIDAD       FAIR      35  25  66 N6        29.81R WCI  30
$$

COZ042>045-048>051-090-091-010300-
...NORTHEAST COLORADO...

CITY           SKY/WX    TMP DP  RH WIND       PRES   REMARKS
GREELEY ARPT   FAIR      27  16  63 NW14      29.91R WCI  16
AKRON          CLOUDY    24  20  84 W8        29.85R WCI  15
BURLINGTON     CLOUDY    29  25  85 N8        29.87R WCI  21
WRAY           NOT AVBL
STERLING       CLOUDY    32  18  55 NW14      29.86R WCI  22
HOLYOKE        FAIR      34  14  44 NW9       29.86R WCI  26
FORT MORGAN    MOCLDY    26  24  93 W9        29.89R WCI  16
$$

COZ086-089-092>099-010300-
...SOUTHEAST COLORADO...

CITY           SKY/WX    TMP DP  RH WIND       PRES   REMARKS
PUEBLO         FAIR      36  25  64 E3        29.82R
LA JUNTA       CLOUDY    35  32  88 N15       29.82R WCI  25
LAMAR          CLOUDY    38  20  48 N16G22    29.83R
SPRINGFIELD      N/A     37   9  31 N22G31    29.81R
$$




USA.gov is the U.S. government's official web portal to all federal, state and local government web resources and services.